Location: Dortmund
(51.5019°N, 7.6520°E)
Time: 05:53:35
(UTC+01:00)

ISS - Pass Details

Date: 09 January 2018
Orbit: 402 x 407 km, 51.6° (Epoch: 20 January)

Event Time Altitude Azimuth Distance (km) Brightness Sun altitude
Exits shadow 07:21:38 15° 272° (W) 1,217 -2.0 -10.5°
Maximum altitude 07:24:06 41° 205° (SSW) 602 -3.0 -10.1°
Drops below altitude 10° 07:27:13 10° 134° (SE) 1,465 0.3 -9.7°
Sets 07:29:22 0° 127° (SE) 2,324 1.9 -9.3°
